| time (UTC) | temp C | wind direction | speed KPH | gust KPH | rain 1hr cm | rain 24hr cm | rain mn cm | humidity % | barometer mb |
| 20260504231634 | 25 | 109 | 1.6 | 12.9 | 0.00 | 0.00 | 0.00 | 16 | 1012.6 |
| 20260504230131 | 25 | 97 | 6.4 | 12.9 | 0.00 | 0.00 | 0.00 | 17 | 1012.7 |
| 20260504224623 | 25 | 154 | 4.8 | 11.3 | 0.00 | 0.00 | 0.00 | 17 | 1012.9 |
| 20260504223138 | 26 | 190 | 3.2 | 14.5 | 0.00 | 0.00 | 0.00 | 17 | 1013.1 |
| 20260504221630 | 26 | 132 | 6.4 | 9.7 | 0.00 | 0.00 | 0.00 | 17 | 1013.4 |
| 20260504220125 | 25 | 170 | 9.7 | 16.1 | 0.00 | 0.00 | 0.00 | 18 | 1014.0 |
| 20260504214658 | 25 | 90 | 6.4 | 12.9 | 0.00 | 0.00 | 0.00 | 19 | 1014.3 |
| 20260504213129 | 24 | 234 | 8.0 | 14.5 | 0.00 | 0.00 | 0.00 | 19 | 1014.5 |
| 20260504211645 | 24 | 184 | 4.8 | 9.7 | 0.00 | 0.00 | 0.00 | 18 | 1015.0 |
| 20260504210157 | 23 | 229 | 6.4 | 12.9 | 0.00 | 0.00 | 0.00 | 19 | 1015.2 |
| 20260504204632 | 23 | 251 | 6.4 | 14.5 | 0.00 | 0.00 | 0.00 | 19 | 1015.5 |
| 20260504203123 | 23 | 213 | 11.3 | 16.1 | 0.00 | 0.00 | 0.00 | 21 | 1015.5 |
| 20260504201635 | 23 | 262 | 9.7 | 14.5 | 0.00 | 0.00 | 0.00 | 21 | 1015.8 |
| 20260504200131 | 23 | 240 | 3.2 | 12.9 | 0.00 | 0.00 | 0.00 | 20 | 1015.9 |
| 20260504194644 | 23 | 296 | 0.0 | 6.4 | 0.00 | 0.00 | 0.00 | 20 | 1016.0 |
| 20260504193139 | 23 | 40 | 0.0 | 9.7 | 0.00 | 0.00 | 0.00 | 21 | 1015.9 |
| 20260504191633 | 23 | 266 | 3.2 | 9.7 | 0.00 | 0.00 | 0.00 | 22 | 1016.1 |
| 20260504190127 | 23 | 9 | 1.6 | 12.9 | 0.00 | 0.00 | 0.00 | 22 | 1016.1 |
| 20260504184636 | 22 | 218 | 6.4 | 12.9 | 0.00 | 0.00 | 0.00 | 22 | 1016.5 |
| 20260504183126 | 22 | 86 | 1.6 | 11.3 | 0.00 | 0.00 | 0.00 | 24 | 1016.7 |
| 20260504181621 | 22 | 67 | 3.2 | 8.0 | 0.00 | 0.00 | 0.00 | 24 | 1016.9 |
| 20260504180132 | 22 | 277 | 1.6 | 8.0 | 0.00 | 0.00 | 0.00 | 24 | 1017.1 |
| 20260504174648 | 22 | 266 | 3.2 | 11.3 | 0.00 | 0.00 | 0.00 | 25 | 1017.0 |
| 20260504173141 | 22 | 303 | 1.6 | 12.9 | 0.00 | 0.00 | 0.00 | 26 | 1017.1 |
| 20260504171652 | 22 | 266 | 4.8 | 11.3 | 0.00 | 0.00 | 0.00 | 27 | 1017.1 |
| 20260504170127 | 21 | 283 | 9.7 | 12.9 | 0.00 | 0.00 | 0.00 | 27 | 1017.0 |
| 20260504160139 | 20 | 109 | 3.2 | 4.8 | 0.00 | 0.00 | 0.00 | 33 | 1017.5 |
| 20260504150123 | 19 | 256 | 1.6 | 6.4 | 0.00 | 0.00 | 0.00 | 40 | 1017.2 |
| 20260504140156 | 14 | 220 | 1.6 | 3.2 | 0.00 | 0.00 | 0.00 | 65 | 1017.4 |
| 20260504130129 | 13 | 171 | 0.0 | 0.0 | 0.00 | 0.00 | 0.00 | 62 | 1017.0 |
| 20260504120136 | 11 | 28 | 0.0 | 0.0 | 0.00 | 0.00 | 0.00 | 66 | 1015.8 |
| 20260504110129 | 10 | 86 | 1.6 | 3.2 | 0.00 | 0.00 | 0.00 | 74 | 1015.7 |
| 20260504100139 | 11 | 118 | 0.0 | 6.4 | 0.00 | 0.00 | 0.00 | 71 | 1015.5 |
| 20260504090126 | 11 | 40 | 0.0 | 0.0 | 0.00 | 0.00 | 0.00 | 69 | 1015.3 |
| 20260504080124 | 12 | 324 | 1.6 | 4.8 | 0.00 | 0.00 | 0.00 | 69 | 1015.9 |
| 20260504070122 | 15 | 231 | 0.0 | 6.4 | 0.00 | 0.00 | 0.00 | 55 | 1016.3 |
| 20260504060122 | 16 | 71 | 1.6 | 3.2 | 0.00 | 0.00 | 0.00 | 49 | 1016.4 |
| 20260504050128 | 17 | 100 | 3.2 | 6.4 | 0.00 | 0.00 | 0.00 | 46 | 1016.8 |
| 20260504044625 | 17 | 106 | 3.2 | 3.2 | 0.00 | 0.00 | 0.00 | 46 | 1016.9 |
| 20260504043201 | 17 | 106 | 1.6 | 3.2 | 0.00 | 0.00 | 0.00 | 46 | 1017.0 |
| 20260504041655 | 16 | 102 | 1.6 | 4.8 | 0.00 | 0.00 | 0.00 | 48 | 1017.0 |
| 20260504040134 | 16 | 84 | 0.0 | 4.8 | 0.00 | 0.00 | 0.00 | 49 | 1016.9 |
| 20260504034626 | 17 | 129 | 1.6 | 3.2 | 0.00 | 0.00 | 0.00 | 45 | 1016.9 |
| 20260504033125 | 17 | 136 | 3.2 | 6.4 | 0.00 | 0.00 | 0.00 | 43 | 1016.7 |
| 20260504031640 | 17 | 138 | 1.6 | 4.8 | 0.00 | 0.00 | 0.00 | 44 | 1016.7 |
| 20260504030155 | 17 | 121 | 3.2 | 4.8 | 0.00 | 0.00 | 0.00 | 44 | 1016.9 |
| 20260504024631 | 18 | 132 | 0.0 | 3.2 | 0.00 | 0.00 | 0.00 | 43 | 1017.1 |
| 20260504023124 | 18 | 130 | 0.0 | 0.0 | 0.00 | 0.00 | 0.00 | 42 | 1016.8 |
| 20260504021640 | 19 | 222 | 0.0 | 3.2 | 0.00 | 0.00 | 0.00 | 40 | 1016.7 |
| 20260504020133 | 20 | 117 | 3.2 | 4.8 | 0.00 | 0.00 | 0.00 | 38 | 1016.7 |
| 20260504014645 | 20 | 158 | 3.2 | 6.4 | 0.00 | 0.00 | 0.00 | 37 | 1016.6 |
| 20260504013140 | 21 | 138 | 4.8 | 6.4 | 0.00 | 0.00 | 0.00 | 35 | 1016.5 |
| 20260504011652 | 21 | 168 | 3.2 | 6.4 | 0.00 | 0.00 | 0.00 | 34 | 1016.7 |
| 20260504010148 | 21 | 147 | 3.2 | 8.0 | 0.00 | 0.00 | 0.00 | 34 | 1017.0 |
| 20260504004638 | 21 | 149 | 4.8 | 9.7 | 0.00 | 0.00 | 0.00 | 32 | 1017.0 |
| 20260504003131 | 22 | 157 | 1.6 | 9.7 | 0.00 | 0.00 | 0.00 | 33 | 1017.1 |
| 20260504001647 | 22 | 125 | 4.8 | 8.0 | 0.00 | 0.00 | 0.00 | 32 | 1017.3 |
| 20260504000138 | 22 | 190 | 6.4 | 11.3 | 0.00 | 0.00 | 0.00 | 33 | 1017.3 |
| 20260503234634 | 22 | 170 | 6.4 | 12.9 | 0.00 | 0.00 | 0.00 | 33 | 1017.4 |
| 20260503233127 | 21 | 170 | 4.8 | 14.5 | 0.00 | 0.00 | 0.00 | 33 | 1017.5 |